EW5448 Weather Reports


Display with metric or nautical units.
time (UTC)temp
F
wind
direction
speed
MPH
gust
MPH
rain 1hr
in
rain 24hr
in
rain mn
in
humidity
%
barometer
mb
20221210042020 46 313 0.0 0.0 0.00 0.00 0.00 52 1005.2
20221210041521 46 313 0.0 0.0 0.00 0.00 0.00 51 1005.1
20221210041021 47 313 0.0 0.0 0.00 0.00 0.00 49 1005.1
20221210040519 47 313 0.0 1.0 0.00 0.00 0.00 49 1005.0
20221210040032 47 313 0.0 1.0 0.00 0.00 0.00 48 1005.0
20221210035520 48 49 0.0 1.0 0.00 0.00 0.00 48 1004.9
20221210035020 48 49 0.0 1.0 0.00 0.00 0.00 48 1004.8
20221210034520 48 50 0.0 2.0 0.00 0.00 0.00 47 1004.7
20221210034019 48 50 0.0 2.0 0.00 0.00 0.00 47 1004.7
20221210033523 48 50 1.0 2.0 0.00 0.00 0.00 46 1004.7
20221210033019 48 49 1.0 2.0 0.00 0.00 0.00 47 1004.6
20221210032519 48 50 1.0 2.0 0.00 0.00 0.00 47 1004.6
20221210032020 48 44 1.0 2.0 0.00 0.00 0.00 47 1004.6
20221210031523 48 44 1.0 2.0 0.00 0.00 0.00 48 1004.5
20221210031018 48 44 1.0 2.0 0.00 0.00 0.00 47 1004.5
20221210030521 49 38 1.0 4.0 0.00 0.00 0.00 47 1004.4
20221210030118 49 17 1.0 4.0 0.00 0.00 0.00 47 1004.4
20221210025517 49 46 1.0 4.0 0.00 0.00 0.00 47 1004.4
20221210025020 49 28 0.0 2.0 0.00 0.00 0.00 47 1004.4
20221210024518 50 17 0.0 1.0 0.00 0.00 0.00 44 1004.3
20221210024023 50 18 0.0 1.0 0.00 0.00 0.00 44 1004.3
20221210023517 51 348 0.0 1.0 0.00 0.00 0.00 44 1004.2
20221210023032 51 348 0.0 2.0 0.00 0.00 0.00 44 1004.2
20221210022517 51 348 1.0 2.0 0.00 0.00 0.00 44 1004.0
20221210022017 51 342 0.0 0.0 0.00 0.00 0.00 46 1003.9
20221210021522 52 288 0.0 0.0 0.00 0.00 0.00 45 1004.0
20221210021019 52 285 0.0 0.0 0.00 0.00 0.00 43 1004.0
20221210020516 52 285 0.0 0.0 0.00 0.00 0.00 43 1003.9
20221210020015 53 285 0.0 0.0 0.00 0.00 0.00 43 1003.9
20221210015515 53 285 0.0 0.0 0.00 0.00 0.00 43 1004.0
20221210015015 52 285 0.0 0.0 0.00 0.00 0.00 43 1003.9
20221210014516 53 285 0.0 0.0 0.00 0.00 0.00 44 1003.9
20221210014015 53 285 0.0 0.0 0.00 0.00 0.00 43 1003.9
20221210013515 54 285 0.0 0.0 0.00 0.00 0.00 41 1003.9
20221210013016 54 284 0.0 0.0 0.00 0.00 0.00 41 1003.9
20221210012514 55 284 0.0 0.0 0.00 0.00 0.00 40 1003.9
20221210012014 55 284 0.0 0.0 0.00 0.00 0.00 40 1003.9
20221210011515 55 284 0.0 0.0 0.00 0.00 0.00 38 1003.9
20221210011014 56 285 0.0 0.0 0.00 0.00 0.00 36 1003.9
20221210010514 56 285 0.0 0.0 0.00 0.00 0.00 36 1003.9
20221210010014 57 285 0.0 0.0 0.00 0.00 0.00 35 1003.9
20221210005513 57 285 0.0 1.0 0.00 0.00 0.00 35 1003.8
20221210005013 58 285 0.0 1.0 0.00 0.00 0.00 34 1003.8
20221210004514 58 285 1.0 2.0 0.00 0.00 0.00 34 1003.8
20221210004020 59 285 0.0 2.0 0.00 0.00 0.00 34 1003.8
20221210003512 59 283 0.0 2.0 0.00 0.00 0.00 34 1003.9
20221210003017 60 275 1.0 2.0 0.00 0.00 0.00 33 1003.9
20221210002512 60 276 1.0 2.0 0.00 0.00 0.00 33 1003.9
20221210002016 61 274 1.0 2.0 0.00 0.00 0.00 32 1003.9
20221210001515 62 268 1.0 2.0 0.00 0.00 0.00 30 1003.9
20221210001012 63 277 0.0 2.0 0.00 0.00 0.00 29 1003.9
20221210000510 63 282 0.0 4.0 0.00 0.00 0.00 29 1004.0
20221210000010 63 311 1.0 4.0 0.00 0.00 0.00 29 1003.9
20221209235510 63 298 1.0 4.0 0.00 0.00 0.00 29 1003.9
20221209235008 63 316 1.0 4.0 0.00 0.00 0.00 29 1004.0
20221209234510 63 322 1.0 2.0 0.00 0.00 0.00 29 1003.9
20221209234010 63 331 0.0 4.0 0.00 0.00 0.00 30 1004.0
20221209233508 63 346 1.0 4.0 0.00 0.00 0.00 30 1004.0
20221209233009 62 20 2.0 4.0 0.00 0.00 0.00 30 1004.0
20221209232508 63 348 1.0 5.0 0.00 0.00 0.00 30 1004.0
20221209232006 62 17 1.0 5.0 0.00 0.00 0.00 30 1004.0
20221209231506 63 338 3.0 5.0 0.00 0.00 0.00 31 1004.1
20221209231008 63 302 2.0 7.0 0.00 0.00 0.00 30 1004.2
20221209230504 63 355 2.0 7.0 0.00 0.00 0.00 30 1004.2
20221209230004 63 18 2.0 5.0 0.00 0.00 0.00 30 1004.2
20221209225504 63 311 1.0 5.0 0.00 0.00 0.00 30 1004.2
20221209225003 63 308 3.0 5.0 0.00 0.00 0.00 31 1004.2
20221209224508 63 319 3.0 5.0 0.00 0.00 0.00 31 1004.3
20221209224006 63 330 2.0 5.0 0.00 0.00 0.00 31 1004.3
20221209223503 63 267 0.0 5.0 0.00 0.00 0.00 32 1004.3
20221209223004 62 20 1.0 6.0 0.00 0.00 0.00 33 1004.3
20221209222503 62 294 2.0 6.0 0.00 0.00 0.00 33 1004.3
20221209222003 63 319 1.0 5.0 0.00 0.00 0.00 33 1004.3
20221209221502 63 200 0.0 4.0 0.00 0.00 0.00 34 1004.3
20221209221003 62 271 1.0 6.0 0.00 0.00 0.00 35 1004.3
20221209220506 62 248 1.0 6.0 0.00 0.00 0.00 35 1004.4
20221209220101 62 279 3.0 6.0 0.00 0.00 0.00 35 1004.4
20221209215501 62 258 3.0 7.0 0.00 0.00 0.00 35 1004.4
20221209215059 63 297 3.0 7.0 0.00 0.00 0.00 34 1004.5
20221209214559 62 296 0.0 5.0 0.00 0.00 0.00 33 1004.4
20221209214058 63 276 0.0 5.0 0.00 0.00 0.00 34 1004.5
20221209213559 63 234 1.0 4.0 0.00 0.00 0.00 35 1004.4
20221209213108 62 230 1.0 5.0 0.00 0.00 0.00 34 1004.4
20221209212558 63 236 2.0 8.0 0.00 0.00 0.00 33 1004.4
20221209212057 63 147 1.0 5.0 0.00 0.00 0.00 35 1004.4
20221209211602 63 138 0.0 1.0 0.00 0.00 0.00 35 1004.5
20221209211054 62 250 0.0 2.0 0.00 0.00 0.00 35 1004.5
20221209210554 62 323 0.0 2.0 0.00 0.00 0.00 36 1004.5
20221209210103 61 19 0.0 4.0 0.00 0.00 0.00 38 1004.6
20221209205552 60 350 1.0 6.0 0.00 0.00 0.00 39 1004.6
20221209205051 59 331 2.0 9.0 0.00 0.00 0.00 40 1004.8
20221209204601 59 345 5.0 9.0 0.00 0.00 0.00 41 1005.0
20221209204048 59 317 6.0 8.0 0.00 0.00 0.00 42 1005.0
20221209203547 58 22 4.0 8.0 0.00 0.00 0.00 42 1005.1
20221209203055 58 331 5.0 8.0 0.00 0.00 0.00 41 1005.2
20221209202545 58 19 2.0 9.0 0.00 0.00 0.00 43 1005.4
20221209202046 58 309 3.0 8.0 0.00 0.00 0.00 43 1005.5
20221209201542 57 42 5.0 9.0 0.00 0.00 0.00 44 1005.6
20221209201041 57 315 4.0 9.0 0.00 0.00 0.00 44 1005.7
20221209200541 57 313 5.0 8.0 0.00 0.00 0.00 44 1005.7
20221209200039 57 313 3.0 8.0 0.00 0.00 0.00 45 1005.8
20221209195537 56 318 4.0 8.0 0.00 0.00 0.00 44 1005.9
20221209195037 56 321 5.0 9.0 0.00 0.00 0.00 46 1005.9
20221209194542 55 327 5.0 9.0 0.00 0.00 0.00 45 1006.1
20221209194034 55 314 4.0 9.0 0.00 0.00 0.00 44 1006.2
20221209193535 55 323 3.0 8.0 0.00 0.00 0.00 44 1006.2
20221209193033 55 306 5.0 8.0 0.00 0.00 0.00 44 1006.3
20221209192531 55 310 0.0 5.0 0.00 0.00 0.00 43 1006.4
20221209192031 54 303 1.0 5.0 0.00 0.00 0.00 44 1006.6
20221209191602 54 341 1.0 6.0 0.00 0.00 0.00 44 1006.5
20221209191028 54 306 0.0 4.0 0.00 0.00 0.00 43 1006.6
20221209190526 53 326 0.0 5.0 0.00 0.00 0.00 44 1006.7
20221209190025 52 290 1.0 5.0 0.00 0.00 0.00 44 1006.8
20221209185523 52 319 2.0 5.0 0.00 0.00 0.00 47 1007.0
20221209185023 51 284 2.0 6.0 0.00 0.00 0.00 45 1007.1
20221209184522 51 270 3.0 6.0 0.00 0.00 0.00 45 1007.3
20221209184022 51 302 3.0 6.0 0.00 0.00 0.00 46 1007.6
20221209183521 51 282 1.0 4.0 0.00 0.00 0.00 47 1007.6
20221209183020 51 283 0.0 2.0 0.00 0.00 0.00 46 1007.7
20221209182520 50 271 1.0 5.0 0.00 0.00 0.00 47 1007.8
20221209182021 50 277 2.0 5.0 0.00 0.00 0.00 47 1007.9
20221209181519 49 312 2.0 5.0 0.00 0.00 0.00 47 1007.9
20221209181019 49 318 2.0 5.0 0.00 0.00 0.00 47 1008.1
20221209180521 49 263 1.0 4.0 0.00 0.00 0.00 47 1008.2
20221209180035 49 271 1.0 3.0 0.00 0.00 0.00 48 1008.2
20221209175519 50 277 1.0 5.0 0.00 0.00 0.00 46 1008.3
20221209175019 51 146 1.0 5.0 0.00 0.00 0.00 46 1008.2
20221209174526 50 265 0.0 1.0 0.00 0.00 0.00 47 1008.3
20221209174017 49 265 0.0 1.0 0.00 0.00 0.00 48 1008.4
20221209173516 49 272 0.0 2.0 0.00 0.00 0.00 47 1008.5
20221209173019 49 225 0.0 2.0 0.00 0.00 0.00 48 1008.6
20221209172513 48 150 0.0 2.0 0.00 0.00 0.00 49 1008.6
20221209172013 47 131 0.0 2.0 0.00 0.00 0.00 50 1008.6
20221209171513 47 180 0.0 2.0 0.00 0.00 0.00 50 1008.8
20221209171010 47 180 0.0 2.0 0.00 0.00 0.00 51 1008.7
20221209170512 46 153 0.0 4.0 0.00 0.00 0.00 53 1008.6
20221209170010 45 144 1.0 3.0 0.00 0.00 0.00 53 1008.7
20221209165510 45 215 1.0 4.0 0.00 0.00 0.00 53 1008.7
20221209165007 45 132 2.0 3.0 0.00 0.00 0.00 54 1008.5
20221209164506 45 171 1.0 2.0 0.00 0.00 0.00 54 1008.5
20221209164007 44 165 1.0 2.0 0.00 0.00 0.00 56 1008.5
20221209163502 44 140 1.0 4.0 0.00 0.00 0.00 56 1008.5
20221209163003 44 173 1.0 5.0 0.00 0.00 0.00 56 1008.4
20221209162501 44 202 1.0 6.0 0.00 0.00 0.00 58 1008.3
20221209162002 43 163 1.0 6.0 0.00 0.00 0.00 58 1008.2
20221209161502 43 161 2.0 6.0 0.00 0.00 0.00 58 1008.1
20221209161102 43 146 4.0 7.0 0.00 0.00 0.00 59 1008.0
20221209160501 43 132 5.0 7.0 0.00 0.00 0.00 57 1008.0
20221209160104 43 167 1.0 4.0 0.00 0.00 0.00 61 1008.1
20221209160000 42 154 0.0 4.0 0.00 0.00 0.00 60 1008.1
20221209155602 42 146 1.0 3.0 0.00 0.00 0.00 60 1008.0
20221209145049 34 110 0.0 1.0 0.00 0.00 0.00 76 1008.0
20221209144554 33 110 0.0 1.0 0.00 0.00 0.00 76 1007.9
20221209144051 33 218 0.0 1.0 0.00 0.00 0.00 75 1007.8
20221209143548 33 218 0.0 1.0 0.00 0.00 0.00 75 1007.6
20221209143050 33 219 0.0 1.0 0.00 0.00 0.00 73 1007.6
20221209142546 34 227 0.0 2.0 0.00 0.00 0.00 71 1007.6
20221209142045 34 229 0.0 4.0 0.00 0.00 0.00 69 1007.5
20221209141601 35 177 1.0 4.0 0.00 0.00 0.00 68 1007.4
20221209141041 36 236 1.0 2.0 0.00 0.00 0.00 66 1007.3
20221209140540 37 288 0.0 1.0 0.00 0.00 0.00 65 1007.3
20221209140042 37 124 0.0 1.0 0.00 0.00 0.00 64 1007.4
20221209135539 37 124 0.0 2.0 0.00 0.00 0.00 64 1007.3
20221209135043 38 117 1.0 2.0 0.00 0.00 0.00 62 1007.2
20221209134542 38 88 1.0 4.0 0.00 0.00 0.00 62 1007.3
20221209134039 38 88 1.0 2.0 0.00 0.00 0.00 63 1007.2
20221209133539 38 56 1.0 2.0 0.00 0.00 0.00 63 1007.2
20221209133040 38 77 0.0 2.0 0.00 0.00 0.00 63 1007.1
20221209132539 38 53 0.0 2.0 0.00 0.00 0.00 64 1007.1
20221209132038 37 53 1.0 2.0 0.00 0.00 0.00 64 1007.1
20221209131544 37 62 1.0 4.0 0.00 0.00 0.00 65 1007.0
20221209131041 37 45 1.0 4.0 0.00 0.00 0.00 65 1007.0
20221209130538 37 18 1.0 2.0 0.00 0.00 0.00 66 1006.9
20221209130037 37 5 1.0 2.0 0.00 0.00 0.00 66 1006.9
20221209125537 37 12 1.0 1.0 0.00 0.00 0.00 67 1006.7
20221209125037 37 13 1.0 1.0 0.00 0.00 0.00 67 1006.7
20221209124537 37 13 0.0 2.0 0.00 0.00 0.00 67 1006.7
20221209124036 37 11 0.0 2.0 0.00 0.00 0.00 67 1006.6
20221209123534 37 27 0.0 4.0 0.00 0.00 0.00 66 1006.7
20221209123039 37 13 2.0 3.0 0.00 0.00 0.00 67 1006.8
20221209122533 37 350 2.0 4.0 0.00 0.00 0.00 67 1006.8
20221209122032 37 355 0.0 2.0 0.00 0.00 0.00 66 1006.8
20221209121545 37 355 0.0 4.0 0.00 0.00 0.00 65 1006.8
20221209121032 37 310 0.0 5.0 0.00 0.00 0.00 64 1006.8
20221209120530 38 294 2.0 5.0 0.00 0.00 0.00 62 1006.8
20221209120034 39 268 1.0 5.0 0.00 0.00 0.00 60 1006.8
20221209115529 41 264 0.0 1.0 0.00 0.00 0.00 58 1006.7
20221209115030 41 133 0.0 2.0 0.00 0.00 0.00 58 1006.7
20221209114531 41 133 1.0 4.0 0.00 0.00 0.00 58 1006.6
20221209114028 41 105 2.0 4.0 0.00 0.00 0.00 57 1006.7
20221209113526 41 95 0.0 4.0 0.00 0.00 0.00 57 1006.9
20221209113026 41 107 1.0 4.0 0.00 0.00 0.00 57 1007.0
20221209112525 41 107 1.0 4.0 0.00 0.00 0.00 57 1007.0
20221209112024 41 111 1.0 2.0 0.00 0.00 0.00 57 1007.0
20221209111527 41 111 1.0 4.0 0.00 0.00 0.00 58 1007.0
20221209111024 41 123 1.0 4.0 0.00 0.00 0.00 58 1007.0
20221209110524 41 131 1.0 3.0 0.00 0.00 0.00 59 1007.1
20221209110029 41 136 1.0 3.0 0.00 0.00 0.00 59 1007.1
20221209105523 40 130 2.0 3.0 0.00 0.00 0.00 60 1007.2
20221209105022 40 109 1.0 4.0 0.00 0.00 0.00 61 1007.1
20221209104522 40 98 2.0 4.0 0.00 0.00 0.00 61 1007.1
20221209104021 40 105 2.0 4.0 0.00 0.00 0.00 62 1007.1
20221209103519 39 110 1.0 2.0 0.00 0.00 0.00 63 1007.2
20221209103020 38 115 0.0 1.0 0.00 0.00 0.00 65 1007.2
20221209102519 38 115 0.0 2.0 0.00 0.00 0.00 66 1007.2
20221209102018 38 120 1.0 2.0 0.00 0.00 0.00 65 1007.2
20221209101517 38 142 0.0 1.0 0.00 0.00 0.00 66 1007.4
20221209101016 38 139 0.0 1.0 0.00 0.00 0.00 65 1007.4
20221209100515 38 138 0.0 1.0 0.00 0.00 0.00 64 1007.5
20221209100015 39 136 0.0 2.0 0.00 0.00 0.00 64 1007.5
20221209095514 39 99 1.0 2.0 0.00 0.00 0.00 63 1007.4
20221209095014 39 96 0.0 4.0 0.00 0.00 0.00 63 1007.5
20221209094514 39 97 0.0 4.0 0.00 0.00 0.00 63 1007.5
20221209094012 38 104 1.0 4.0 0.00 0.00 0.00 64 1007.3
20221209093512 39 292 0.0 1.0 0.00 0.00 0.00 63 1007.4
20221209093012 39 291 0.0 1.0 0.00 0.00 0.00 62 1007.5
20221209092512 39 291 0.0 2.0 0.00 0.00 0.00 63 1007.4
20221209092012 39 291 0.0 2.0 0.00 0.00 0.00 62 1007.5
20221209091508 40 291 1.0 2.0 0.00 0.00 0.00 62 1007.6
20221209091007 40 140 0.0 0.0 0.00 0.00 0.00 60 1007.5
20221209090506 40 140 0.0 0.0 0.00 0.00 0.00 59 1007.4
20221209090008 40 140 0.0 0.0 0.00 0.00 0.00 59 1007.4
20221209085505 40 140 0.0 0.0 0.00 0.00 0.00 60 1007.5
20221209085007 41 140 0.0 0.0 0.00 0.00 0.00 59 1007.6
20221209084502 41 140 0.0 0.0 0.00 0.00 0.00 58 1007.7
20221209084002 42 140 0.0 1.0 0.00 0.00 0.00 57 1007.7
20221209083600 42 140 0.0 1.0 0.00 0.00 0.00 56 1007.7
20221209083109 42 127 1.0 1.0 0.00 0.00 0.00 56 1007.7
20221209082559 42 105 0.0 1.0 0.00 0.00 0.00 56 1007.8
20221209082057 42 127 0.0 1.0 0.00 0.00 0.00 56 1007.9
20221209081603 42 126 0.0 1.0 0.00 0.00 0.00 56 1008.0
20221209081057 43 128 1.0 4.0 0.00 0.00 0.00 56 1007.9
20221209080557 43 111 2.0 3.0 0.00 0.00 0.00 55 1007.9
20221209080057 43 96 1.0 2.0 0.00 0.00 0.00 55 1008.0
20221209075556 43 86 0.0 2.0 0.00 0.00 0.00 55 1008.0
20221209075055 43 101 0.0 4.0 0.00 0.00 0.00 55 1008.1
20221209074554 43 110 2.0 4.0 0.00 0.00 0.00 56 1008.1
20221209074053 43 98 2.0 3.0 0.00 0.00 0.00 56 1008.2
20221209073552 42 52 0.0 2.0 0.00 0.00 0.00 57 1008.2
20221209073051 42 76 1.0 2.0 0.00 0.00 0.00 58 1008.2
20221209072550 42 145 0.0 2.0 0.00 0.00 0.00 57 1008.2
20221209072050 43 146 0.0 2.0 0.00 0.00 0.00 57 1008.2
20221209071549 43 142 1.0 2.0 0.00 0.00 0.00 56 1008.2
20221209071047 43 91 0.0 1.0 0.00 0.00 0.00 57 1008.2
20221209070545 44 90 0.0 4.0 0.00 0.00 0.00 54 1008.2
20221209070046 44 90 0.0 4.0 0.00 0.00 0.00 54 1008.1
20221209065545 43 108 2.0 4.0 0.00 0.00 0.00 56 1008.2
20221209065045 43 78 1.0 2.0 0.00 0.00 0.00 57 1008.1
20221209064548 42 61 1.0 2.0 0.00 0.00 0.00 58 1008.2
20221209064045 43 63 1.0 2.0 0.00 0.00 0.00 58 1008.2
20221209063545 43 148 0.0 0.0 0.00 0.00 0.00 57 1008.3
20221209063044 42 151 0.0 1.0 0.00 0.00 0.00 57 1008.2
20221209062548 42 152 0.0 1.0 0.00 0.00 0.00 57 1008.2
20221209062043 43 152 0.0 1.0 0.00 0.00 0.00 56 1008.2
20221209061544 43 152 1.0 2.0 0.00 0.00 0.00 56 1008.2
20221209061043 44 221 1.0 2.0 0.00 0.00 0.00 56 1008.1
20221209060543 44 115 0.0 4.0 0.00 0.00 0.00 55 1008.1
20221209060046 44 115 1.0 4.0 0.00 0.00 0.00 55 1008.1
20221209055545 44 157 2.0 2.0 0.00 0.00 0.00 55 1008.1
20221209055043 45 84 0.0 1.0 0.00 0.00 0.00 53 1008.1
20221209054548 45 84 0.0 1.0 0.00 0.00 0.00 52 1008.1
20221209054042 46 84 0.0 2.0 0.00 0.00 0.00 51 1008.2
20221209053543 46 83 1.0 2.0 0.00 0.00 0.00 51 1008.1
20221209053052 46 79 1.0 2.0 0.00 0.00 0.00 51 1008.2
20221209052542 46 83 1.0 1.0 0.00 0.00 0.00 51 1008.2
20221209052043 46 84 0.0 2.0 0.00 0.00 0.00 52 1008.2
20221209051543 46 84 0.0 2.0 0.00 0.00 0.00 52 1008.2
20221209051041 45 99 0.0 1.0 0.00 0.00 0.00 54 1008.1
20221209050545 45 229 0.0 1.0 0.00 0.00 0.00 54 1008.1
20221209050047 46 229 0.0 1.0 0.00 0.00 0.00 53 1008.1
20221209045542 46 229 1.0 2.0 0.00 0.00 0.00 53 1008.0
20221209045041 46 229 1.0 2.0 0.00 0.00 0.00 53 1008.0
20221209044546 46 229 0.0 1.0 0.00 0.00 0.00 53 1008.0
20221209044044 46 229 0.0 1.0 0.00 0.00 0.00 52 1007.9
20221209043545 46 225 0.0 1.0 0.00 0.00 0.00 53 1007.9
20221209043041 46 225 0.0 0.0 0.00 0.00 0.00 51 1007.8
20221209042540 46 225 0.0 1.0 0.00 0.00 0.00 51 1007.8